User: anonymous   Login
Location: Unspecified
(0.0000°N, 0.0000°E)
Time: 01:51:41
(UTC+00:00)
Language:

EO-88 - Orbit

View from above orbital plane
View from above orbital plane
View from above satellite
View from above satellite

Ground track
Ground track

The orbit data is extracted from the following two-line orbital elements,

1 42017U 17008BX  20185.15019156 +.00000962 +00000-0 +39566-4 0  9994
2 42017 097.3591 252.4834 0004449 264.6038 095.4693 15.26534706187942
Epoch (UTC): 03 July 2020 03:36:16
Eccentricity: 0.0004449
inclination: 97.3591°
perigee height: 483 km
apogee height: 489 km
right ascension of ascending node: 252.4834°
argument of perigee: 264.6038°
revolutions per day: 15.26534706
mean anomaly at epoch: 95.4693°
orbit number at epoch: 18794

The dashed part of the orbit path shows where the satellite is in the earth's shadow,  

DLR